Weather History for Brookings, SD

Change the Weather History Date:

Monday, February 18, 2013

  Actual Average Record
Temperature  
Mean Temperature 20 °F -  
Max Temperature 33 °F 28 °F 46 °F (2002)
Min Temperature 6 °F 13 °F -7 °F (2006)
Degree Days  
Heating Degree Days 46    
Moisture  
Dew Point 13 °F    
Average Humidity 80    
Maximum Humidity 92    
Minimum Humidity 72    
Precipitation  
Precipitation 0.00 in - - ()
Sea Level Pressure  
Sea Level Pressure 29.77 in    
Wind  
Wind Speed 20 mph (WNW)    
Max Wind Speed 34 mph    
Max Gust Speed 45 mph    
Visibility 7 miles    
Events      
Averages and records for this station are not official NWS values.
T = Trace of Precipitation, MM = Missing Value Source: NWS Daily Summary

Daily Weather History Graph

Daily Weather History Graph

Search for Another Location

Airport:

Trip Planner

Search our weather history database for the weather conditions in past years. The results will help you decide how hot, cold, wet, or windy it might be!

Date:

Astronomy

Feb. 18, 2013 Rise Set
Actual Time 7:21 AM CST 6:01 PM CST
Civil Twilight 6:52 AM CST 6:30 PM CST
Nautical Twilight 6:18 AM CST 7:04 PM CST
Astronomical Twilight 5:45 AM CST 7:38 PM CST
Moon 11:41 AM CST (2/18) 2:08 AM CST (2/18)
Length of Visible Light 11h 38m
Length of Day
10h 39m
First Quarter, 58% of the Moon is Illuminated
Feb 18
First Quarter
Feb 25
Full
Mar 4
Last Quarter
Mar 11
New
Mar 19
First Quarter

Hourly Weather History & Observations

Time (CST) Temp. Windchill Dew Point Humidity Pressure Visibility Wind Dir Wind Speed Gust Speed Precip Events Conditions
12:15 AM 32.0 °F 24.2 °F 28.4 °F 87% 29.56 in 10.0 mi WNW 9.2 mph - N/A   Clear
12:35 AM 33.8 °F 26.4 °F 28.4 °F 81% 29.57 in 10.0 mi WNW 9.2 mph - N/A   Partly Cloudy
12:55 AM 33.8 °F 26.4 °F 28.4 °F 81% 29.57 in 10.0 mi WNW 9.2 mph - N/A   Partly Cloudy
1:15 AM 33.8 °F 25.8 °F 28.4 °F 81% 29.56 in 10.0 mi NW 10.4 mph - N/A   Clear
1:35 AM 32.0 °F 23.0 °F 28.4 °F 87% 29.56 in 10.0 mi NW 11.5 mph - N/A   Scattered Clouds
1:55 AM 33.8 °F 24.3 °F 28.4 °F 81% 29.56 in 10.0 mi NW 13.8 mph - N/A   Partly Cloudy
2:15 AM 33.8 °F 24.3 °F 28.4 °F 81% 29.57 in 10.0 mi WNW 13.8 mph - N/A   Partly Cloudy
2:35 AM 32.0 °F 23.0 °F 28.4 °F 87% 29.59 in 10.0 mi West 11.5 mph 17.3 mph N/A   Mostly Cloudy
2:55 AM 33.8 °F 25.3 °F 28.4 °F 81% 29.59 in 10.0 mi West 11.5 mph - N/A   Overcast
3:15 AM 33.8 °F 25.8 °F 28.4 °F 81% 29.60 in 10.0 mi West 10.4 mph - N/A   Mostly Cloudy
3:55 AM 33.8 °F 24.8 °F 28.4 °F 81% 29.60 in 10.0 mi West 12.7 mph 19.6 mph N/A   Mostly Cloudy
4:15 AM 33.8 °F 24.8 °F 30.2 °F 87% 29.60 in 10.0 mi West 12.7 mph 18.4 mph N/A   Overcast
4:35 AM 33.8 °F 24.3 °F 30.2 °F 87% 29.60 in 10.0 mi West 13.8 mph 19.6 mph N/A   Overcast
4:55 AM 33.8 °F 23.5 °F 30.2 °F 87% 29.59 in 10.0 mi WNW 16.1 mph - N/A   Overcast
5:15 AM 33.8 °F 22.5 °F 30.2 °F 87% 29.59 in 10.0 mi WNW 19.6 mph 26.5 mph N/A   Overcast
5:35 AM 33.8 °F 21.6 °F 30.2 °F 87% 29.58 in 10.0 mi WNW 23.0 mph 27.6 mph N/A   Overcast
5:55 AM 33.8 °F 21.9 °F 30.2 °F 87% 29.58 in 10.0 mi WNW 21.9 mph 29.9 mph N/A   Overcast
6:15 AM 33.8 °F 19.2 °F 28.4 °F 81% 29.59 in 10.0 mi WNW 34.5 mph 40.3 mph N/A   Overcast
6:35 AM 30.2 °F 15.4 °F 26.6 °F 86% 29.59 in 10.0 mi WNW 28.8 mph 34.5 mph N/A   Overcast
6:55 AM 28.4 °F 13.8 °F 23.0 °F 80% 29.62 in 6.0 mi NW 25.3 mph 39.1 mph N/A   Overcast
7:15 AM 24.8 °F 8.7 °F 17.6 °F 74% 29.65 in 9.0 mi WNW 26.5 mph 44.9 mph N/A   Mostly Cloudy
7:35 AM 21.2 °F 3.0 °F 15.8 °F 80% 29.65 in 10.0 mi WNW 29.9 mph 38.0 mph N/A   Overcast
7:55 AM 19.4 °F 1.1 °F 15.8 °F 86% 29.68 in 10.0 mi WNW 27.6 mph 39.1 mph N/A   Mostly Cloudy
8:15 AM 19.4 °F 2.1 °F 15.8 °F 86% 29.69 in 9.0 mi WNW 24.2 mph 34.5 mph N/A   Mostly Cloudy
8:35 AM 19.4 °F 1.4 °F 15.8 °F 86% 29.70 in 9.0 mi WNW 26.5 mph 35.7 mph N/A   Overcast
8:55 AM 19.4 °F 0.5 °F 15.8 °F 86% 29.71 in 9.0 mi WNW 29.9 mph 38.0 mph N/A   Overcast
9:15 AM 19.4 °F 1.8 °F 14.0 °F 80% 29.73 in 6.0 mi WNW 25.3 mph 34.5 mph N/A   Overcast
9:35 AM 19.4 °F -0.0 °F 12.2 °F 74% 29.72 in 10.0 mi WNW 32.2 mph 39.1 mph N/A   Overcast
9:55 AM 17.6 °F -1.3 °F 12.2 °F 79% 29.74 in 9.0 mi WNW 27.6 mph 38.0 mph N/A   Mostly Cloudy
10:15 AM 17.6 °F -0.6 °F 12.2 °F 79% 29.74 in 5.0 mi WNW 25.3 mph 34.5 mph N/A   Mostly Cloudy
10:35 AM 17.6 °F -3.1 °F 10.4 °F 73% 29.73 in 5.0 mi WNW 34.5 mph 39.1 mph N/A   Overcast
10:55 AM 17.6 °F -0.3 °F 10.4 °F 73% 29.75 in 10.0 mi WNW 24.2 mph 35.7 mph N/A   Mostly Cloudy
11:15 AM 15.8 °F -4.4 °F 10.4 °F 79% 29.76 in 8.0 mi NW 29.9 mph 38.0 mph N/A   Mostly Cloudy
11:35 AM 15.8 °F -3.4 °F 10.4 °F 79% 29.77 in 5.0 mi WNW 26.5 mph 35.7 mph N/A   Mostly Cloudy
11:55 AM 15.8 °F -4.7 °F 8.6 °F 73% 29.78 in 7.0 mi WNW 31.1 mph 35.7 mph N/A   Mostly Cloudy
12:15 PM 15.8 °F -3.1 °F 10.4 °F 79% 29.80 in 7.0 mi NW 25.3 mph 33.4 mph N/A   Mostly Cloudy
12:35 PM 15.8 °F -5.2 °F 10.4 °F 79% 29.80 in 4.0 mi NW 33.4 mph 39.1 mph N/A   Mostly Cloudy
12:55 PM 14.0 °F -6.2 °F 8.6 °F 79% 29.81 in 5.0 mi WNW 27.6 mph 39.1 mph N/A   Mostly Cloudy
1:15 PM 12.2 °F -9.3 °F 5.0 °F 73% 29.81 in 8.0 mi WNW 29.9 mph 42.6 mph N/A   Mostly Cloudy
1:35 PM 14.0 °F -5.8 °F 8.6 °F 79% 29.82 in 10.0 mi WNW 26.5 mph 32.2 mph N/A   Mostly Cloudy
1:55 PM 14.0 °F -4.7 °F 8.6 °F 79% 29.82 in 10.0 mi WNW 23.0 mph - N/A   Overcast
2:15 PM 15.8 °F -3.7 °F 10.4 °F 79% 29.82 in 1.8 mi WNW 27.6 mph 34.5 mph N/A   Overcast
2:35 PM 14.0 °F -6.2 °F 6.8 °F 73% 29.83 in 4.0 mi WNW 27.6 mph 34.5 mph N/A   Overcast
2:55 PM 14.0 °F -6.2 °F 8.6 °F 79% 29.84 in 5.0 mi WNW 27.6 mph 33.4 mph N/A   Mostly Cloudy
3:15 PM 14.0 °F -6.8 °F 8.6 °F 79% 29.84 in 2.5 mi WNW 29.9 mph 35.7 mph N/A   Overcast
3:35 PM 12.2 °F -9.9 °F 8.6 °F 85% 29.85 in 0.5 mi NW 32.2 mph 39.1 mph N/A   Overcast
3:55 PM 12.2 °F -8.2 °F 8.6 °F 85% 29.86 in 0.5 mi NW 26.5 mph 32.2 mph N/A   Overcast
4:15 PM 12.2 °F -8.6 °F 6.8 °F 79% 29.87 in 0.5 mi WNW 27.6 mph - N/A   Overcast
4:35 PM 10.4 °F -9.5 °F 6.8 °F 85% 29.88 in 1.0 mi WNW 23.0 mph 35.7 mph N/A   Overcast
4:55 PM 10.4 °F -11.4 °F 8.6 °F 92% 29.88 in 0.5 mi WNW 28.8 mph 39.1 mph N/A   Overcast
5:35 PM 10.4 °F -12.3 °F 6.8 °F 85% 29.90 in 0.8 mi NW 32.2 mph 36.8 mph N/A   Overcast
5:55 PM 10.4 °F -10.3 °F 5.0 °F 79% 29.91 in 7.0 mi NW 25.3 mph 32.2 mph N/A   Mostly Cloudy
6:15 PM 10.4 °F -11.0 °F 3.2 °F 73% 29.92 in 10.0 mi WNW 27.6 mph 34.5 mph N/A   Scattered Clouds
6:35 PM 10.4 °F -12.0 °F 3.2 °F 73% 29.92 in 5.0 mi WNW 31.1 mph 38.0 mph N/A   Mostly Cloudy
6:55 PM 8.6 °F -12.7 °F 1.4 °F 73% 29.93 in 7.0 mi WNW 25.3 mph 36.8 mph N/A   Scattered Clouds
7:15 PM 8.6 °F -13.8 °F 3.2 °F 79% 29.93 in 7.0 mi WNW 28.8 mph 34.5 mph N/A   Mostly Cloudy
7:35 PM 8.6 °F -11.9 °F 3.2 °F 79% 29.94 in 10.0 mi WNW 23.0 mph 33.4 mph N/A   Mostly Cloudy
7:55 PM 8.6 °F -12.3 °F 3.2 °F 79% 29.94 in 8.0 mi NW 24.2 mph 29.9 mph N/A   Mostly Cloudy
8:15 PM 8.6 °F -13.4 °F 1.4 °F 73% 29.94 in 9.0 mi NW 27.6 mph 38.0 mph N/A   Mostly Cloudy
8:35 PM 8.6 °F -13.1 °F 3.2 °F 79% 29.94 in 5.0 mi NW 26.5 mph 38.0 mph N/A   Mostly Cloudy
8:55 PM 6.8 °F -16.9 °F 1.4 °F 79% 29.94 in 9.0 mi WNW 31.1 mph 35.7 mph N/A   Overcast
9:15 PM 6.8 °F -15.9 °F 1.4 °F 79% 29.95 in 10.0 mi NW 27.6 mph 41.4 mph N/A   Overcast
9:35 PM 6.8 °F -13.4 °F 1.4 °F 79% 29.97 in 10.0 mi NW 20.7 mph - N/A   Overcast
9:55 PM 6.8 °F -12.4 °F 1.4 °F 79% 29.98 in 1.8 mi NW 18.4 mph - N/A   Overcast
10:15 PM 6.8 °F -14.7 °F 3.2 °F 85% 29.98 in 3.0 mi NW 24.2 mph 28.8 mph N/A   Overcast
10:35 PM 6.8 °F -15.1 °F -0.4 °F 72% 29.99 in 8.0 mi NW 25.3 mph 33.4 mph N/A   Overcast
10:55 PM 6.8 °F -13.8 °F 1.4 °F 79% 30.00 in 8.0 mi NW 21.9 mph 29.9 mph N/A   Overcast
11:15 PM 6.8 °F -16.6 °F 1.4 °F 79% 29.99 in 3.0 mi NW 29.9 mph 35.7 mph N/A   Overcast
11:35 PM 6.8 °F -15.5 °F -0.4 °F 72% 30.00 in 5.0 mi NW 26.5 mph - N/A   Overcast
11:55 PM 6.8 °F -13.8 °F 1.4 °F 79% 30.01 in 9.0 mi NW 21.9 mph 29.9 mph N/A   Overcast